Location: *
(50.2903°S, 172.5375°W)
Time: 21:16:47
(UTC+00:00)

Meteor 1-16 Rocket - Pass Details

Date: 17 November 2019
Orbit: 791 x 907 km, 81.2° (Epoch: 13 December)

Event Time Altitude Azimuth Distance (km) Brightness Sun altitude
Exits shadow 13:48:57 13° 352° (N) 2,384 6.0 -12.9°
Maximum altitude 13:54:21 86° 78° (ENE) 923 4.4 -12.3°
Drops below altitude 10° 14:00:20 10° 167° (SSE) 2,596 7.8 -11.7°
Sets 14:02:47 0° 167° (SSE) 3,529 8.7 -11.5°
